Theta_e
312 312 314 320 324 325 325 324 323 325 329 328 328 326 326 327 326 327 328 328 328 328 329 329 330 329 324 320 318 317 317 318 318 318 319 321 323 322 322 322 322 323 324 324 324 325 325 327 329 329 328 324 320 318 317 319 318 319 327 328 324 325 325 321 321 317 317 319 314 312 314 318 320 317 316 317 317 318 318 320 321 323 322 321 321 320 322 328
311 311 311 313 320 326 325 325 324 324 328 328 328 327 326 327 327 327 328 328 328 329 329 329 329 327 323 320 318 317 318 319 318 318 318 321 323 322 323 323 322 323 324 325 325 325 326 328 328 326 327 326 321 317 316 318 316 320 325 324 326 329 323 317 317 314 314 315 313 313 313 316 319 317 317 317 316 317 319 319 320 322 323 321 321 321 321 325
309 310 311 311 315 323 326 326 326 326 329 329 328 327 326 327 327 327 327 328 329 329 329 329 328 324 320 318 317 317 317 317 318 318 318 319 321 321 321 322 322 323 324 325 326 326 326 327 327 326 327 327 324 319 316 316 316 317 319 323 329 325 317 314 315 313 314 314 313 313 312 314 316 316 316 316 316 317 318 319 319 321 322 321 320 320 320 323
309 310 311 311 312 320 325 326 327 326 328 330 328 327 327 327 327 326 326 328 329 329 328 328 327 322 317 317 317 316 316 318 320 319 318 318 319 320 320 321 323 324 325 325 326 326 325 325 326 326 327 326 324 321 317 315 316 315 317 323 322 315 315 315 314 314 313 313 312 312 312 313 314 315 315 315 318 319 317 317 319 319 319 320 320 320 320 320
310 310 311 311 312 316 322 325 327 327 326 328 329 328 327 327 326 325 326 328 329 329 328 327 326 321 316 315 315 315 317 321 322 319 319 318 319 319 319 320 322 324 325 326 325 325 325 325 325 325 325 323 323 325 320 314 314 315 315 317 314 312 315 314 313 314 313 313 313 312 313 314 314 314 314 315 318 319 317 317 318 318 318 318 319 319 320 320
309 310 310 312 311 313 318 323 326 328 327 328 329 328 327 326 326 325 326 328 328 328 327 327 326 321 316 315 315 317 320 323 323 321 321 319 319 320 319 320 320 321 323 325 325 324 324 323 324 324 322 321 322 328 325 314 313 316 314 312 312 312 313 313 312 312 312 313 313 312 313 313 314 314 314 315 317 317 316 317 317 317 318 317 318 319 319 320
310 310 310 311 312 312 315 321 325 327 328 329 329 328 327 327 326 325 325 328 328 327 327 326 324 321 317 316 317 320 321 322 322 322 323 322 321 320 320 320 319 319 320 324 325 324 322 322 323 322 321 321 321 324 324 317 314 316 316 312 312 313 312 312 311 311 312 312 313 313 313 312 314 315 313 314 316 317 316 317 317 317 317 317 318 318 318 319
310 310 310 311 312 312 313 317 323 326 327 328 328 328 328 327 326 325 325 327 327 326 326 326 324 321 318 318 320 322 322 322 321 322 323 323 322 320 321 320 320 320 320 323 325 324 322 321 322 322 321 322 321 320 320 320 318 317 317 314 313 314 315 314 312 312 312 312 313 312 312 313 314 313 312 314 316 316 316 317 316 317 317 317 317 317 318 319
311 311 311 311 311 312 313 314 320 325 326 326 327 328 328 328 326 325 325 326 326 325 325 325 323 320 318 319 322 323 322 322 322 322 322 322 322 320 321 320 319 321 321 324 325 324 321 321 322 322 321 320 320 318 317 322 323 319 318 316 315 316 316 316 314 313 312 312 312 312 312 312 312 313 313 315 316 315 316 316 317 317 316 317 317 317 317 318
313 313 312 311 311 312 313 314 318 322 323 324 325 327 328 327 325 325 325 326 325 323 322 321 320 319 319 322 323 322 323 321 321 322 322 322 321 320 320 320 321 322 323 325 324 322 321 323 323 322 322 320 319 317 317 322 324 320 319 317 316 317 315 315 316 314 313 312 312 313 314 312 311 312 315 316 315 315 316 316 316 316 317 316 317 317 317 318
311 312 311 311 311 312 312 313 316 318 320 322 324 325 326 326 325 324 324 325 324 321 320 318 318 319 322 323 322 321 322 321 321 321 321 323 321 320 320 321 323 324 325 325 324 322 321 323 323 322 323 321 318 316 316 319 319 316 317 317 316 316 316 315 316 315 313 312 312 312 312 311 310 312 316 315 314 315 315 316 316 316 317 317 316 317 318 318
307 308 308 309 309 310 311 311 313 315 317 319 321 323 324 325 324 323 324 323 322 319 318 317 319 321 322 323 322 321 322 321 320 320 321 323 322 321 322 323 324 325 325 325 324 324 323 322 322 323 323 321 319 317 316 316 315 313 313 317 318 316 317 317 316 315 314 313 312 311 312 313 312 313 315 315 314 315 315 315 316 316 316 316 316 317 317 318
305 305 306 307 308 308 309 310 310 312 314 316 319 321 323 324 323 323 323 321 320 318 316 317 320 322 322 322 321 320 322 321 320 320 321 322 322 323 324 325 326 325 326 326 325 325 324 321 321 322 321 320 319 318 317 313 312 313 311 316 320 319 320 318 315 315 314 313 312 311 314 320 317 313 314 314 314 314 315 315 314 315 315 315 316 316 317 318
306 305 305 306 307 308 308 308 309 310 312 314 316 319 322 323 322 322 322 320 319 318 317 319 321 321 322 323 321 320 322 322 321 321 321 323 322 323 325 325 326 325 326 326 324 322 321 320 320 321 320 320 318 316 316 313 315 316 313 315 318 322 326 320 313 315 316 314 312 312 314 319 318 314 314 313 314 313 314 315 315 315 315 315 315 316 316 317
307 305 305 306 306 307 308 308 309 309 310 312 314 317 321 322 322 322 321 321 320 319 319 320 321 321 322 323 322 321 323 323 323 322 322 323 322 323 324 325 325 325 323 321 319 318 318 318 319 319 318 317 317 316 317 318 321 320 319 321 318 320 326 320 311 313 318 314 310 312 314 316 316 313 313 313 313 313 313 314 314 315 315 314 315 315 315 316
308 306 305 306 306 307 307 308 309 309 310 311 312 317 320 321 323 322 322 321 321 320 320 321 321 322 323 323 322 322 323 323 323 323 323 323 323 323 325 325 322 320 318 316 316 317 318 318 317 317 315 316 318 319 319 319 321 319 322 326 320 318 320 319 313 310 313 313 310 312 315 316 316 312 311 312 312 312 312 313 314 314 314 314 314 314 315 315
307 307 306 306 306 306 307 308 308 308 310 310 311 315 318 319 322 323 322 323 322 322 322 322 322 322 323 322 322 323 323 323 323 322 322 323 324 325 325 321 316 315 315 316 317 316 317 316 316 316 315 316 317 319 323 323 322 319 318 321 319 316 316 318 318 310 308 311 312 312 312 314 315 312 311 312 312 312 311 312 313 313 314 314 314 314 314 315
307 307 307 306 305 305 306 307 308 308 309 310 311 314 316 317 321 323 323 323 323 322 323 322 322 324 323 320 321 323 323 323 323 322 322 323 325 326 324 318 313 315 315 316 316 315 316 314 314 317 316 316 316 319 327 326 324 321 317 318 317 316 314 316 319 313 310 312 312 312 311 312 314 312 312 312 312 312 312 312 312 313 313 313 314 314 314 314
307 308 309 307 305 304 304 305 306 307 308 309 310 312 315 316 319 323 324 324 322 322 323 322 321 324 324 320 320 323 323 322 322 322 322 324 325 325 323 317 314 315 315 315 315 313 314 313 314 319 318 316 316 319 325 324 323 321 317 319 320 319 316 314 315 311 309 313 314 314 313 312 313 312 311 312 312 312 312 312 312 313 313 313 314 314 314 314
307 308 309 308 305 304 304 304 305 306 307 308 310 311 314 315 316 319 322 324 322 322 322 322 321 320 320 320 320 322 323 322 322 322 322 323 323 321 318 316 314 315 314 315 315 312 313 316 316 318 318 316 316 318 319 318 319 318 317 320 320 320 318 314 313 309 307 313 315 314 313 312 312 312 311 311 310 310 311 311 312 313 313 313 314 314 315 314
306 307 309 309 307 305 304 304 304 305 306 307 309 311 313 315 315 315 318 322 322 321 321 321 321 319 319 320 320 321 322 322 322 322 323 323 322 318 315 315 315 314 314 313 313 311 314 317 317 317 316 315 316 317 315 313 314 315 318 319 318 319 320 315 313 311 308 311 315 313 311 312 312 312 310 309 309 309 310 311 311 313 313 314 314 314 315 315
305 305 307 309 308 306 305 304 303 304 306 307 308 310 312 314 314 313 314 319 321 320 320 320 320 319 319 320 320 321 322 322 321 322 323 322 320 318 314 314 315 314 312 311 312 313 315 317 317 314 312 312 315 316 315 314 316 318 318 318 318 316 317 316 312 312 310 311 316 314 311 311 311 311 309 307 308 310 311 311 312 313 313 313 314 314 315 315
304 304 306 307 308 307 305 304 303 303 305 307 308 309 311 312 313 313 311 314 320 319 319 321 319 318 319 319 320 321 321 321 320 321 323 320 318 317 315 314 315 313 311 313 314 314 315 316 314 310 309 312 315 315 316 315 316 318 317 318 318 314 317 318 313 312 311 309 312 314 312 311 310 310 311 309 308 310 312 312 312 313 313 314 314 314 314 314
304 304 304 306 307 307 306 304 303 303 304 306 307 308 310 310 311 312 309 308 315 318 319 321 319 318 319 319 320 321 321 322 321 320 321 319 318 317 315 314 314 312 312 313 314 315 316 314 310 309 311 314 315 315 316 316 316 316 317 320 318 314 315 317 314 313 314 311 311 313 314 315 315 315 314 312 308 308 310 310 310 313 314 314 314 314 315 315
304 304 304 305 306 306 306 305 303 303 304 306 307 308 309 309 310 311 308 308 313 316 319 320 318 318 319 320 320 320 321 321 320 321 320 319 319 317 316 316 314 312 313 314 313 316 316 311 309 312 313 314 315 315 316 317 317 315 318 319 316 316 315 314 316 318 318 316 312 312 316 321 322 318 316 316 312 309 309 306 308 312 313 314 314 314 315 315
304 304 304 304 305 306 306 306 305 303 304 305 306 307 308 308 309 309 308 310 314 316 318 319 319 319 319 320 320 320 322 320 319 321 320 319 320 318 319 319 315 313 313 312 314 317 315 309 310 314 313 314 316 315 315 317 318 317 319 318 316 316 316 315 318 320 320 317 311 310 315 319 318 314 315 317 315 313 310 306 306 310 312 313 314 315 315 315
305 304 304 303 304 305 305 307 306 303 304 305 305 307 308 307 307 307 309 313 315 315 318 319 319 320 319 319 320 321 323 321 317 318 319 319 320 319 321 320 317 314 311 314 318 316 311 309 311 313 313 315 315 315 316 315 317 321 319 317 317 316 316 317 318 319 319 316 314 313 313 314 314 313 314 314 314 314 312 310 308 308 312 313 314 315 315 315
304 304 304 304 304 305 305 306 306 304 304 305 304 306 307 308 307 307 310 315 316 316 317 317 317 319 318 319 320 320 320 320 319 317 316 317 318 318 320 320 317 314 310 316 322 314 309 311 312 312 313 313 314 315 315 313 318 323 317 314 316 316 318 319 318 317 315 314 316 315 312 314 316 317 315 313 313 314 314 314 312 309 312 314 314 315 315 315
303 304 304 304 304 305 305 306 306 306 305 304 304 304 307 309 308 308 312 315 316 316 316 317 317 317 317 318 317 316 318 319 319 316 314 314 316 316 319 319 316 313 311 316 321 313 308 310 310 312 314 313 314 315 313 315 318 316 312 313 316 317 319 318 316 316 314 315 317 316 315 315 317 319 316 313 314 314 314 315 312 310 312 314 314 314 314 314
303 303 304 304 304 305 305 306 307 307 305 303 304 305 306 309 309 310 314 315 316 316 315 316 317 316 317 318 317 316 317 316 315 315 313 313 313 312 315 317 315 313 313 314 316 311 307 308 308 311 312 311 312 310 309 312 312 310 312 315 316 319 320 318 319 317 315 318 318 317 316 314 316 318 316 313 314 314 314 315 313 310 312 314 314 314 314 313
303 303 303 304 305 305 305 306 307 307 306 304 304 306 307 308 310 313 315 315 316 316 315 316 316 316 318 318 318 318 316 314 314 315 314 314 313 312 314 316 315 315 316 315 315 310 307 308 308 309 308 308 309 308 308 309 308 311 318 317 314 317 317 318 320 317 317 319 316 314 314 312 315 318 314 312 313 313 312 315 316 312 311 314 314 313 313 312
302 302 303 303 304 304 305 305 306 307 307 305 304 306 308 308 310 314 315 316 317 315 314 316 316 317 318 319 319 317 316 315 315 315 315 315 315 314 317 317 316 318 318 317 317 312 310 311 309 308 307 308 311 311 311 310 309 313 318 315 316 317 315 317 318 315 318 318 313 312 311 310 313 315 313 312 313 314 310 310 313 310 310 313 313 311 311 311
300 300 301 302 303 303 304 305 305 305 307 306 305 305 308 310 311 313 314 316 317 315 314 315 316 317 318 319 318 316 316 317 316 316 315 315 315 315 317 317 317 321 321 318 316 314 315 314 311 309 309 308 311 312 311 312 311 313 313 314 318 318 315 316 316 314 318 317 311 309 311 313 316 315 314 314 312 312 310 307 309 309 309 311 311 311 312 313
300 299 300 300 301 302 304 305 305 305 306 307 306 305 307 310 313 313 313 313 314 315 315 315 316 318 319 319 317 316 317 317 316 317 316 316 316 315 315 316 316 319 320 317 316 316 318 317 312 311 311 309 311 311 312 313 311 311 314 315 319 320 319 319 318 317 320 317 310 307 311 318 321 318 314 312 309 310 311 311 312 311 311 311 311 312 312 313
300 300 300 300 300 301 302 304 305 305 306 307 307 307 308 310 313 314 314 312 312 313 315 315 316 318 319 318 316 315 316 317 317 317 317 316 317 316 316 316 315 316 318 319 318 318 319 316 310 309 308 308 310 309 310 313 311 311 314 315 316 318 321 319 316 317 319 318 312 310 314 319 319 317 312 309 308 308 309 311 311 311 312 311 311 312 312 313
300 300 300 300 300 300 301 303 304 305 306 307 307 308 309 310 312 313 313 312 312 313 314 316 317 318 318 316 317 315 314 316 318 317 317 317 317 316 316 315 314 314 317 320 318 318 319 315 310 308 307 307 309 309 308 311 313 312 311 314 313 314 319 319 312 311 313 316 315 312 314 316 315 315 314 311 311 310 308 308 308 309 311 311 311 312 312 313
300 300 301 301 300 300 300 302 304 305 306 306 306 307 309 310 310 311 313 313 312 312 314 317 317 317 316 316 317 316 315 316 317 317 318 318 318 316 315 315 313 312 315 317 317 318 318 313 309 310 310 306 306 307 307 307 311 313 313 313 311 311 317 320 315 312 312 316 317 313 313 314 314 317 318 315 313 314 313 311 308 308 309 310 311 312 312 312
300 300 300 300 300 300 300 301 303 304 305 306 306 307 308 309 309 310 312 313 313 313 314 317 317 315 315 317 316 315 316 318 317 317 318 318 318 316 314 315 313 312 312 313 317 317 316 315 310 309 311 308 306 309 310 307 307 311 313 312 312 315 317 317 317 316 315 315 318 317 312 311 312 315 317 315 314 316 315 313 311 308 308 309 311 312 311 311
299 299 299 299 300 300 300 301 302 304 305 305 306 307 307 308 309 310 311 312 313 313 314 316 316 315 314 316 316 315 317 319 317 317 318 318 319 315 314 315 314 311 309 310 315 315 315 319 314 308 310 310 309 310 312 311 307 307 310 309 311 317 316 315 315 315 316 316 317 319 317 315 314 313 314 313 313 314 313 313 314 310 308 310 311 311 311 311
298 299 299 299 299 299 300 301 302 303 304 305 306 307 307 307 308 310 311 312 313 313 314 314 315 315 314 315 315 315 318 318 316 318 319 318 317 314 314 315 313 311 308 309 315 314 313 317 315 310 308 310 312 312 312 312 310 309 311 311 310 311 313 315 314 313 317 318 318 319 319 320 319 314 312 313 313 314 314 315 314 310 309 310 310 311 311 311
298 299 300 300 299 299 300 301 302 303 304 305 306 307 307 306 307 308 310 311 312 313 315 314 314 315 315 316 315 315 317 317 316 317 318 317 316 314 314 313 311 310 308 310 314 314 313 314 314 312 310 310 313 312 311 313 311 311 312 311 311 311 312 314 313 311 313 316 319 318 315 319 320 313 311 315 315 315 312 311 311 308 308 310 310 311 311 311
298 299 299 300 300 300 301 302 303 303 304 305 306 306 307 307 307 308 309 310 311 312 313 314 314 315 315 316 316 315 316 316 316 317 318 317 317 315 314 312 310 309 310 312 312 311 313 314 312 312 312 313 313 308 305 309 312 311 312 312 312 311 311 315 318 315 311 311 314 315 314 318 319 314 313 314 312 308 306 305 306 307 309 310 311 311 311 311
298 299 300 300 300 300 301 302 303 303 304 305 305 306 307 308 308 308 309 310 311 312 312 313 315 315 316 316 315 315 316 316 316 317 316 317 316 314 312 310 309 309 311 313 311 309 313 314 313 312 312 313 315 309 305 307 310 310 312 312 311 312 314 320 324 319 313 312 312 312 314 316 315 314 310 305 304 303 303 305 306 308 310 310 310 311 311 311
299 299 300 300 300 300 301 302 303 303 304 304 305 306 307 308 308 309 310 310 311 312 312 313 315 315 315 315 315 316 317 317 317 316 316 317 314 311 310 309 309 310 311 312 311 312 315 315 313 313 313 314 315 314 311 310 309 311 314 312 311 314 315 316 316 312 312 315 314 313 315 313 314 316 309 304 306 306 303 305 307 308 310 310 310 311 311 311
299 299 299 300 301 301 301 302 303 303 303 304 305 306 307 307 308 309 310 310 310 312 313 314 314 315 315 315 315 315 316 317 318 315 314 315 311 308 309 309 309 310 311 311 311 313 317 315 313 314 315 315 315 314 314 313 310 311 315 313 311 313 312 311 313 312 312 313 313 314 314 310 310 314 311 309 312 311 307 306 308 309 310 310 310 310 311 311
299 299 300 300 301 301 302 302 302 303 303 304 305 306 307 307 308 308 310 310 310 311 313 314 315 315 315 315 315 315 316 317 317 315 313 313 310 308 308 308 309 309 310 311 310 313 316 314 312 315 315 314 315 315 316 315 312 311 312 311 310 310 309 312 316 315 313 312 312 312 312 311 310 311 312 313 314 317 314 308 306 309 310 310 310 311 311 311
299 299 300 301 301 301 302 303 303 303 303 304 305 306 307 307 308 309 309 310 310 311 312 313 314 315 315 315 314 315 316 315 315 315 313 311 311 309 308 309 310 309 310 310 310 314 317 313 312 315 314 315 320 319 316 314 313 312 312 311 310 310 310 313 315 314 314 314 313 312 311 312 313 313 316 318 318 320 316 307 307 311 311 310 310 311 311 312
298 299 300 301 302 302 303 303 303 303 304 304 305 306 307 307 308 309 310 310 310 311 312 313 313 315 315 315 315 315 315 315 315 315 313 310 310 309 309 310 310 310 310 311 310 312 316 314 313 314 314 316 320 319 316 315 313 313 312 311 310 310 311 313 313 312 314 314 314 315 314 313 312 313 317 318 315 314 313 310 310 311 310 310 311 311 312 311
298 299 300 301 302 303 303 303 303 304 304 305 305 306 307 307 308 309 310 310 310 311 312 312 313 314 315 315 315 315 315 315 315 315 313 310 310 310 310 311 310 309 310 312 311 311 314 316 314 313 313 314 315 313 313 314 314 313 312 311 310 310 310 311 312 311 312 312 313 316 315 312 312 313 316 314 310 309 310 309 310 310 310 311 311 311 312 311
298 298 299 300 301 302 303 304 304 304 304 305 306 306 307 307 308 308 309 310 311 311 311 312 312 314 314 314 315 315 315 315 315 315 313 311 311 311 312 312 311 310 310 311 311 310 313 316 313 312 312 311 310 310 311 312 313 313 312 311 310 311 311 310 311 311 311 311 311 313 313 312 311 309 310 310 307 307 308 307 308 310 311 311 311 311 311 311
297 298 298 300 301 302 303 304 304 304 304 305 306 306 307 307 308 308 309 310 311 311 311 311 312 313 314 315 315 315 314 314 315 314 313 312 311 311 312 312 311 311 311 312 311 310 312 314 311 312 313 310 308 310 311 312 312 311 311 312 311 311 311 310 310 311 311 311 311 311 312 312 311 309 308 307 306 306 306 307 309 310 310 311 311 311 311 311
297 297 298 299 300 302 303 304 305 305 305 305 306 306 307 308 308 308 309 310 311 311 311 311 312 313 314 314 315 315 314 314 314 313 312 311 310 309 310 310 310 311 312 312 312 311 313 313 311 312 314 310 307 309 312 313 312 311 311 312 311 310 311 310 311 311 311 311 311 311 312 312 311 312 312 311 309 308 307 309 310 310 311 311 310 311 312 312
Wind_Speed
40 36 24 21 32 42 39 40 44 45 45 42 42 41 40 39 38 37 36 34 33 30 29 30 30 29 29 30 30 30 30 30 30 30 32 34 31 25 20 16 16 14 12 11 10 8 7 7 6 9 14 11 4 3 3 3 6 4 2 2 1 2 3 5 6 7 3 0 1 1 8 7 3 7 8 4 8 9 9 14 13 14 17 13 8 4 13 26
39 40 36 24 22 39 41 38 43 45 45 44 42 43 41 39 39 38 36 34 33 32 29 30 30 29 29 29 30 29 28 25 25 29 30 28 24 22 21 20 19 20 16 11 9 8 7 6 5 7 10 10 6 4 3 3 4 3 3 2 3 4 3 4 6 8 3 2 3 2 4 9 6 7 10 5 6 9 8 11 14 14 17 16 12 6 12 25
35 36 38 31 23 31 40 38 41 44 46 47 45 43 43 40 39 38 36 35 34 33 31 31 30 30 30 30 30 28 25 22 22 28 29 25 20 17 17 17 16 17 17 12 9 8 6 5 6 8 9 8 6 5 3 2 2 2 3 2 4 5 3 2 3 5 2 3 4 4 1 7 8 9 10 7 5 7 10 13 14 16 19 18 15 9 12 24
29 33 32 27 21 24 37 40 40 42 44 46 47 44 43 41 39 39 37 35 35 35 34 33 32 31 30 31 30 27 23 16 20 30 28 24 23 20 19 17 16 15 14 12 10 7 6 7 8 10 9 7 5 4 2 2 1 3 3 3 3 4 2 0 1 1 1 3 4 3 1 4 8 10 10 8 4 5 15 21 20 20 20 19 19 14 13 22
24 30 30 26 22 20 29 37 39 44 45 43 45 45 43 42 40 39 37 36 37 37 37 36 35 33 32 31 27 25 21 7 14 31 28 25 25 23 22 20 19 17 15 13 12 10 9 10 10 11 9 4 4 3 2 2 3 3 2 1 3 4 3 2 1 1 2 2 3 3 2 3 4 9 13 12 7 7 13 18 20 21 20 17 19 18 15 20
21 26 30 28 27 22 22 29 35 42 47 47 45 45 44 42 41 39 37 37 37 38 39 39 38 36 33 30 26 26 23 5 5 23 28 28 26 25 24 23 24 20 17 15 13 13 12 12 11 12 10 4 6 5 4 5 3 2 0 2 4 2 1 2 3 3 5 4 4 4 3 3 4 6 12 16 18 15 9 8 11 14 17 18 18 19 18 19
19 24 29 28 28 26 21 24 32 36 40 47 47 46 45 43 41 39 38 38 38 40 40 41 40 38 34 30 27 27 26 10 6 11 24 30 27 26 26 24 26 23 20 18 17 16 15 16 13 14 11 4 7 6 5 8 1 1 1 2 4 1 1 4 8 7 7 6 6 6 5 4 6 5 6 16 26 21 12 6 4 7 13 18 19 19 20 19
18 20 25 27 27 25 19 18 30 35 34 41 46 45 45 44 42 40 40 39 40 40 40 42 40 38 35 32 31 26 27 20 9 8 15 30 30 27 28 25 26 24 23 23 21 19 17 17 15 14 8 2 8 8 7 8 3 2 2 3 4 2 2 6 10 7 6 6 6 7 6 5 7 6 6 16 23 21 19 13 7 6 9 16 19 19 19 20
19 21 22 24 25 24 20 16 23 33 31 34 42 45 46 45 44 42 41 40 41 41 41 41 39 38 34 35 33 21 27 29 15 7 6 22 33 29 28 27 26 24 25 25 22 20 19 18 17 14 7 5 10 10 12 9 3 7 8 5 4 6 7 8 8 7 6 6 4 6 6 5 5 5 9 18 19 16 18 19 16 12 10 12 16 19 20 20
21 24 21 22 23 23 22 18 18 25 24 26 35 43 48 46 44 44 42 42 42 41 41 40 39 40 36 37 30 14 26 34 23 12 3 13 31 29 28 26 26 26 26 27 24 22 21 18 18 15 7 8 10 8 12 9 2 7 11 9 9 11 10 8 7 9 9 7 6 6 4 3 4 3 6 10 9 12 17 18 19 18 16 14 14 18 20 21
24 23 20 22 24 23 22 19 16 17 17 20 25 32 44 48 44 44 44 43 43 42 41 41 40 41 38 37 28 13 24 34 29 20 4 10 27 28 27 26 26 28 27 28 26 24 22 16 17 15 5 6 9 6 9 8 4 5 7 6 9 12 11 10 9 7 6 5 6 6 2 1 4 3 9 9 4 7 14 16 17 19 20 18 16 18 20 22
24 24 22 24 28 28 28 26 22 18 13 16 17 20 33 47 45 43 45 44 44 43 41 42 40 41 38 32 30 22 21 29 30 24 10 11 26 26 24 25 24 27 27 27 26 23 21 17 17 14 6 8 9 4 6 8 6 5 5 3 5 5 7 11 9 4 2 4 4 3 2 3 3 7 14 12 8 7 10 13 14 17 19 19 18 18 21 22
17 19 19 20 23 26 31 31 29 27 17 12 13 13 22 41 47 43 45 44 43 45 43 44 41 40 36 24 28 28 17 21 27 24 15 14 25 26 23 23 21 23 25 24 24 21 20 16 17 15 10 11 8 5 7 7 6 4 3 2 2 4 3 8 8 6 4 4 3 3 3 5 5 15 17 11 10 11 12 13 14 14 16 18 19 20 21 23
15 16 16 17 17 19 23 25 27 28 25 15 12 12 14 32 47 44 45 45 43 45 43 43 41 38 32 19 25 29 16 17 23 24 20 18 26 27 23 23 20 21 22 21 21 19 18 16 15 14 11 9 9 8 7 5 4 3 2 1 1 1 4 5 4 8 5 4 5 4 3 5 7 14 14 11 12 12 14 15 14 14 15 16 19 20 22 23
18 16 15 16 16 18 19 20 20 21 24 21 16 13 12 24 45 48 45 45 44 45 44 42 40 37 27 15 23 29 20 17 20 22 21 21 29 30 25 25 22 22 21 19 19 17 17 16 14 13 9 8 10 8 4 3 3 2 2 1 2 3 4 5 2 9 7 4 7 6 3 5 8 10 8 11 15 14 16 16 15 16 15 16 18 20 22 23
18 18 16 14 15 17 17 17 16 15 19 23 20 15 12 16 40 51 46 46 45 43 44 41 41 38 21 12 21 27 25 21 19 22 21 21 29 31 28 27 24 24 22 17 16 18 17 15 13 11 10 8 7 5 4 3 2 2 3 3 2 3 2 3 1 4 4 3 6 7 4 3 5 5 3 5 12 14 17 18 18 18 18 18 19 20 22 23
17 19 17 13 13 13 15 14 13 13 15 20 21 18 13 9 33 52 48 47 45 45 48 44 45 37 14 10 21 28 30 26 22 22 22 23 27 29 30 29 27 24 22 17 15 17 17 14 11 8 6 4 3 4 4 1 3 2 3 2 1 3 2 2 2 2 1 1 4 5 5 5 7 10 8 4 5 8 12 16 17 17 19 20 20 22 23 24
18 20 19 15 11 9 13 13 12 13 12 16 18 19 16 7 24 48 49 46 44 43 40 39 41 24 9 18 27 31 35 30 25 23 25 27 27 28 31 30 28 24 21 17 14 16 15 11 8 4 2 3 4 6 5 4 5 5 5 3 2 2 3 3 3 1 1 0 3 3 2 6 9 16 20 14 9 10 11 11 13 15 17 19 21 24 24 25
19 19 19 16 10 7 10 11 12 12 10 13 14 17 18 9 15 37 49 47 41 32 21 31 39 12 6 27 31 31 37 32 26 24 28 32 30 31 31 29 28 26 21 13 9 13 13 7 5 4 4 5 7 8 7 5 5 7 7 5 4 3 2 3 4 3 2 2 3 5 5 6 8 11 19 19 13 14 16 13 15 17 17 18 20 23 25 27
20 19 17 17 14 10 9 10 11 12 10 10 12 15 14 9 6 14 36 49 44 31 21 39 44 8 9 29 31 30 33 31 27 27 31 34 33 32 29 27 24 21 15 9 7 10 11 6 4 6 8 10 9 7 5 4 6 9 7 5 5 5 4 4 3 3 2 2 3 5 5 7 9 9 16 22 13 12 17 16 18 20 20 20 20 21 23 26
19 20 19 18 17 15 13 11 10 12 11 8 12 14 6 6 4 4 13 39 48 32 17 37 41 7 12 31 35 36 33 26 25 29 31 33 34 27 23 23 17 9 8 10 10 7 8 6 6 8 9 10 8 6 7 6 7 7 7 5 4 4 4 4 4 3 1 2 2 2 2 6 9 8 15 21 11 11 19 18 19 22 22 23 22 23 23 22
18 20 20 18 18 17 16 12 9 12 15 11 13 16 7 5 7 4 5 11 40 36 12 32 40 12 16 33 36 40 33 21 20 28 34 35 34 24 19 18 10 6 7 10 9 5 4 5 8 8 7 8 6 6 8 6 6 5 5 6 3 3 2 4 3 3 2 1 2 2 3 7 9 8 13 18 13 15 24 24 24 25 24 26 26 26 26 25
17 19 20 18 17 18 18 15 11 11 16 17 16 17 12 9 11 10 8 9 22 36 20 33 39 21 26 32 35 43 35 24 23 31 39 38 33 27 22 16 8 8 9 9 9 7 5 5 8 10 10 10 5 4 8 6 5 3 4 6 3 4 2 2 2 4 2 1 2 3 4 6 7 6 10 18 18 20 27 28 28 28 26 27 27 27 28 28
16 18 19 19 19 18 18 17 14 12 16 19 18 17 15 15 14 11 4 9 4 23 26 35 38 30 32 32 37 41 31 25 27 33 40 38 32 27 22 18 13 9 9 11 11 9 3 2 10 13 9 10 7 5 7 5 3 1 3 6 4 4 4 2 0 3 3 4 3 4 5 5 4 5 7 11 11 14 21 23 24 28 27 27 28 28 28 27
15 16 18 20 20 19 18 18 19 16 15 17 19 20 17 16 16 11 4 4 5 10 21 30 30 28 32 32 36 36 25 20 24 36 41 37 33 24 17 18 14 10 12 12 10 7 3 4 16 14 5 9 8 6 7 6 5 2 4 6 7 7 5 3 3 4 4 3 3 4 3 5 3 5 7 6 4 7 13 14 19 26 25 26 28 27 27 28
13 14 17 20 21 21 19 17 20 18 16 17 18 19 18 17 15 10 3 2 3 4 13 24 24 25 31 31 36 35 20 12 20 39 42 34 34 27 16 10 5 9 14 10 5 3 2 6 13 12 9 9 7 6 7 7 6 2 5 6 7 7 7 5 4 4 2 2 2 3 1 5 5 6 9 7 5 9 10 10 16 24 25 26 28 27 27 28
12 13 15 19 20 22 21 16 18 19 17 16 17 16 16 17 14 5 4 2 4 4 9 18 20 26 32 33 42 30 10 15 23 33 39 31 31 30 19 9 4 9 12 8 4 2 4 8 8 9 11 8 7 7 7 9 7 3 6 8 8 7 7 6 6 3 2 1 3 3 3 3 6 7 8 5 6 11 10 9 13 19 23 25 28 30 29 29
12 11 13 17 19 21 22 18 17 21 19 13 14 16 14 15 12 7 5 3 3 5 5 10 14 27 35 37 41 20 12 29 21 18 34 30 26 23 15 12 11 12 12 10 7 2 5 9 10 12 10 6 7 6 7 10 6 5 6 7 7 7 6 5 6 3 1 2 3 3 2 2 6 6 4 2 6 11 10 9 11 16 22 23 25 28 28 28
12 11 12 16 17 19 21 19 15 19 20 12 11 14 13 15 13 8 3 3 4 3 2 9 14 24 32 29 24 14 20 26 12 16 32 24 21 16 8 13 16 13 9 5 5 2 1 9 16 15 9 7 5 5 10 11 4 4 5 6 4 4 5 4 4 3 1 1 4 4 2 2 6 4 3 1 5 8 7 7 10 17 23 21 21 22 21 23
13 11 11 14 16 19 22 19 14 14 19 16 12 14 15 15 10 6 4 3 4 2 3 10 14 21 29 21 9 11 17 11 12 25 22 12 17 13 11 17 16 12 5 5 4 1 2 7 13 9 5 6 6 5 7 8 6 8 7 6 6 5 4 3 2 3 1 3 4 6 6 4 4 4 4 4 4 6 7 6 8 14 19 18 19 19 18 19
14 11 10 11 14 19 22 21 17 14 18 21 15 16 18 10 3 4 5 2 2 3 4 5 11 21 26 18 9 13 13 6 15 24 12 7 10 9 14 15 8 7 5 3 3 2 5 7 6 3 6 10 9 5 3 3 6 8 5 4 5 3 3 3 3 2 1 5 3 3 4 5 6 5 3 4 5 4 6 6 6 11 16 18 19 17 13 13
15 14 10 10 12 15 18 22 22 17 18 24 22 18 14 5 3 4 3 3 2 3 5 5 10 18 21 19 12 12 11 7 15 19 12 10 7 7 11 9 8 7 5 8 5 3 3 1 2 1 7 11 9 4 3 4 1 4 5 6 5 2 1 0 2 1 3 5 2 2 3 3 7 6 5 8 10 9 9 12 12 13 18 22 22 20 16 15
14 15 13 12 11 12 14 17 22 21 17 22 24 15 6 2 4 5 3 2 1 1 6 9 12 16 21 18 11 11 11 8 14 17 14 12 9 8 3 2 10 6 4 10 7 4 2 4 2 3 3 10 12 8 4 1 4 5 5 6 5 4 4 4 3 1 4 4 2 2 2 3 5 4 7 11 13 13 12 15 19 19 21 25 26 25 24 26
13 14 14 14 13 12 14 13 17 21 20 20 20 10 5 4 3 5 6 3 1 2 5 10 12 15 18 14 10 12 9 7 14 15 13 12 9 9 3 4 9 4 5 10 5 7 8 2 6 6 3 10 11 8 7 6 6 6 4 5 5 4 5 5 4 2 4 3 1 1 2 3 2 2 6 9 13 16 16 18 21 23 24 25 25 24 25 27
14 14 15 15 16 15 15 15 15 18 22 19 10 3 5 5 2 4 6 3 1 1 4 9 12 14 12 9 10 10 2 5 14 12 11 13 10 12 10 10 13 6 8 10 3 5 8 3 3 1 3 11 9 6 8 9 4 3 2 4 3 4 5 3 3 5 4 1 1 2 4 4 3 5 9 10 12 14 17 19 20 22 24 22 22 22 22 23
15 16 16 16 19 19 16 17 18 17 21 17 5 3 4 2 1 2 4 4 4 6 7 8 11 10 7 6 11 9 2 2 12 9 8 12 10 13 12 10 12 10 10 11 5 3 6 1 4 4 3 8 9 10 10 8 5 2 2 4 3 3 6 5 1 0 3 1 2 2 4 5 3 6 9 7 7 10 13 15 16 19 19 18 20 21 20 21
15 15 16 18 20 20 18 18 17 19 20 13 5 5 2 1 2 1 2 3 4 8 10 9 8 5 5 5 8 11 7 5 8 6 6 9 8 12 11 8 13 14 11 8 3 3 6 3 4 2 3 2 4 10 7 3 5 5 4 6 3 2 3 4 1 2 3 2 4 2 5 5 2 4 5 4 5 8 9 10 11 12 12 13 17 18 18 17
14 13 17 22 21 20 21 19 16 20 18 7 6 9 2 1 4 3 2 4 6 7 6 6 5 3 6 8 9 14 16 12 10 7 7 6 5 13 16 11 15 18 12 5 3 2 6 4 3 1 3 1 2 6 4 2 2 4 6 7 5 2 2 2 3 1 1 2 4 4 4 4 5 6 5 4 7 9 10 10 9 9 12 15 17 17 15 14
12 10 14 21 22 21 22 18 17 20 12 3 7 9 3 2 6 7 8 5 6 7 5 5 3 2 7 9 11 16 17 15 13 10 10 7 4 14 21 13 12 19 15 6 5 4 4 5 1 3 1 2 1 3 7 3 2 4 4 5 2 2 4 3 3 3 3 3 3 3 4 3 6 7 7 10 12 11 11 11 9 11 15 16 15 15 15 15
12 7 9 17 18 21 23 19 17 14 6 4 8 6 5 6 7 11 14 10 5 6 7 5 3 4 7 8 10 13 12 14 15 10 8 10 5 9 20 14 10 18 14 4 5 6 3 4 4 0 1 2 2 4 8 9 5 3 5 6 4 2 2 2 1 2 4 4 3 2 4 6 6 4 8 12 11 10 11 10 10 12 12 9 10 13 14 11
13 6 6 12 12 20 27 18 11 8 3 5 7 3 5 6 6 11 17 15 9 7 7 7 6 6 6 8 8 9 8 10 14 9 4 9 7 4 17 20 14 17 13 5 6 7 3 3 7 4 3 4 4 3 5 8 8 8 7 8 9 6 4 3 3 1 2 3 4 2 4 8 5 5 8 9 9 11 12 10 9 11 11 9 9 9 8 4
13 7 8 12 12 23 28 14 6 7 4 6 9 7 8 6 7 12 15 15 14 9 5 5 8 7 4 7 8 9 9 9 13 12 6 12 13 6 15 23 22 22 15 5 4 4 4 5 6 3 4 5 3 2 3 4 3 4 5 5 7 6 5 6 5 3 2 2 2 4 3 8 6 7 8 9 10 11 9 5 3 7 9 8 6 4 2 3
14 12 10 13 17 25 23 8 5 8 4 8 12 12 13 9 7 11 13 13 12 7 5 5 8 9 5 5 7 8 10 8 11 13 7 8 10 6 16 28 27 22 13 5 5 5 4 5 5 3 1 2 4 3 2 1 1 3 5 3 6 5 5 5 4 4 4 4 3 3 3 7 5 4 6 10 11 8 6 3 2 5 7 6 4 2 3 5
17 17 12 16 24 27 18 5 6 9 7 9 11 12 14 11 9 12 12 13 11 7 7 6 7 10 7 6 9 11 11 8 8 10 5 3 5 9 25 37 31 20 13 10 11 9 5 4 5 6 4 2 3 3 2 2 3 4 3 3 5 6 7 5 2 4 3 7 9 6 6 7 3 3 4 9 8 7 10 8 6 6 6 4 3 4 5 8
14 13 13 23 34 32 19 11 11 9 10 13 11 13 15 10 12 17 14 14 15 12 8 8 10 10 8 9 10 12 13 8 6 8 4 3 2 5 23 37 33 22 13 13 16 11 5 5 7 9 9 8 9 6 6 5 3 2 3 6 9 9 11 7 4 3 6 7 10 9 8 3 2 4 5 7 6 7 11 10 9 8 7 6 6 7 7 7
8 6 9 17 29 29 21 20 18 9 10 14 10 12 16 10 12 21 20 14 16 17 11 8 10 10 9 13 11 11 14 6 4 6 5 6 3 3 20 35 30 22 16 18 23 14 3 4 7 10 13 13 11 7 5 9 8 6 7 10 10 10 12 9 5 5 7 5 7 16 12 3 3 6 6 7 7 7 8 7 9 10 9 9 9 8 6 4
7 5 6 9 15 17 14 15 15 8 10 14 9 9 17 16 11 16 20 16 16 20 13 7 9 10 11 16 12 11 16 7 5 10 9 7 2 1 18 28 24 24 21 20 25 15 3 5 10 11 15 8 4 5 8 12 14 13 11 12 11 11 12 12 11 12 7 7 9 15 11 9 9 8 9 9 7 6 7 10 11 9 11 13 12 10 8 7
11 7 12 15 10 7 10 14 14 13 16 16 10 10 18 22 17 13 15 15 16 19 13 6 11 14 15 19 14 11 15 10 6 12 11 9 5 4 10 13 14 24 22 14 18 12 3 8 11 10 11 3 6 6 10 12 12 12 14 15 14 15 16 18 21 17 11 10 13 7 11 17 14 8 9 10 9 10 10 11 10 9 14 16 14 12 12 11
14 7 11 19 12 7 15 22 21 19 19 16 12 12 17 22 22 16 11 11 13 17 15 9 11 15 16 18 14 11 15 13 10 12 11 11 11 9 10 5 7 18 19 11 11 9 5 8 9 10 8 4 5 4 7 9 9 10 15 17 17 18 21 23 27 22 14 16 14 3 5 14 10 8 11 12 13 12 8 7 9 11 15 17 16 17 17 16
18 12 11 15 12 10 16 19 19 17 17 16 13 14 17 21 25 20 12 13 14 14 17 16 14 16 17 18 17 15 18 21 19 19 19 18 16 12 12 11 9 12 14 10 8 8 8 7 7 9 6 3 3 1 4 5 8 10 11 13 16 20 23 26 25 15 10 18 15 3 8 13 8 9 13 14 12 8 6 8 11 13 16 19 21 23 21 20
30 27 22 15 9 12 15 12 13 14 13 13 13 13 17 22 26 22 14 18 19 16 19 22 19 17 17 20 20 17 21 26 23 20 22 20 15 9 5 7 13 14 12 10 7 6 7 4 5 7 7 4 2 4 7 6 6 4 7 13 20 22 20 20 15 9 13 20 15 8 14 13 7 9 11 11 8 7 9 12 14 17 20 23 25 26 25 24
34 34 34 22 10 13 15 10 12 15 12 12 15 16 18 20 25 24 16 16 22 24 26 26 21 15 14 20 27 29 33 32 23 19 21 18 14 12 10 12 17 17 13 9 5 4 6 4 4 7 8 4 2 6 9 8 7 2 12 20 24 21 15 11 10 14 20 18 11 13 15 8 9 11 10 7 6 7 12 18 22 25 26 26 27 27 26 26
Wind_Direction
236 239 241 221 206 204 204 207 210 211 207 205 204 204 204 203 203 203 202 195 190 189 185 183 185 184 184 188 192 194 197 201 204 207 216 216 205 200 205 214 224 230 230 233 235 233 231 220 213 201 193 190 177 119 121 142 146 143 106 97 210 184 200 189 179 189 158 308 305 135 188 185 196 193 186 193 203 207 210 211 216 217 217 220 225 226 193 189
239 241 245 249 223 203 202 205 207 212 213 209 204 202 202 201 201 202 200 194 188 186 185 182 183 184 185 188 191 191 193 199 204 211 217 218 215 215 216 216 225 229 222 219 230 231 229 212 176 171 179 182 180 150 134 139 142 126 109 143 219 193 209 203 178 184 154 3 302 341 201 197 209 195 189 199 202 200 211 219 217 220 221 221 221 217 195 192
239 244 244 250 245 209 203 204 206 211 210 205 202 200 201 200 199 200 197 193 187 183 182 180 182 186 188 190 191 190 193 197 208 217 218 217 218 214 208 207 212 218 214 210 220 227 232 210 174 182 176 166 178 170 131 111 145 131 124 170 231 208 224 238 172 179 202 321 317 337 244 208 219 201 191 202 197 196 214 218 211 217 221 217 211 203 195 195
236 241 242 243 247 219 204 202 203 210 207 199 198 199 199 199 197 198 196 192 186 183 180 178 180 185 186 186 186 189 190 195 216 218 213 208 205 199 199 203 199 204 209 201 198 202 198 175 171 183 170 157 182 184 140 86 151 159 145 176 204 179 145 35 178 194 273 310 312 311 271 234 223 205 199 188 174 222 229 225 221 226 225 216 209 203 198 200
230 234 239 240 241 229 209 204 199 205 209 202 197 197 197 197 196 196 195 190 186 183 180 178 180 184 185 184 185 186 181 180 228 218 209 201 199 197 201 206 204 203 200 192 188 188 190 184 180 170 152 142 169 181 188 120 120 154 148 126 141 145 106 52 98 188 298 314 285 265 248 257 205 206 208 190 196 235 238 235 236 240 236 227 219 211 204 204
223 229 236 240 241 240 224 211 197 197 207 206 199 196 196 197 195 195 194 189 186 183 181 180 181 185 187 186 188 183 178 157 213 210 208 202 201 200 201 205 207 207 202 197 190 191 194 187 179 162 138 122 167 169 180 161 123 152 191 74 113 123 113 30 345 294 296 290 261 257 266 248 188 219 219 208 223 235 244 253 247 246 239 232 229 220 215 210
205 218 230 236 238 242 238 219 202 194 198 202 198 195 196 197 195 195 194 188 186 184 182 183 183 187 187 184 184 182 188 187 108 178 202 201 203 202 201 204 205 208 209 205 196 197 196 184 175 162 138 103 176 178 179 182 189 110 170 156 134 66 74 1 335 306 285 266 260 266 268 244 207 226 226 225 234 236 237 252 249 248 235 229 228 225 225 222
187 204 219 227 232 235 240 232 209 198 195 197 197 196 195 197 196 194 193 189 184 184 183 183 184 186 184 180 178 181 197 197 135 122 187 196 200 202 202 205 208 212 212 209 203 199 194 184 176 165 147 103 173 172 167 178 252 236 197 182 166 227 276 335 338 325 289 264 265 257 250 249 228 228 242 246 245 237 235 241 249 258 236 227 228 228 227 225
183 195 205 216 222 222 229 240 216 201 196 194 195 198 197 196 196 193 191 189 184 183 183 181 182 181 180 180 176 182 198 193 179 149 160 192 195 198 204 206 209 211 205 203 204 199 194 187 183 178 173 158 160 163 165 165 232 220 214 219 221 262 280 306 325 345 321 273 255 238 253 265 232 230 257 261 257 242 237 240 244 252 249 234 230 230 228 227
179 178 185 201 207 211 218 229 223 204 197 191 188 194 198 195 193 192 189 187 183 181 179 177 177 176 177 180 175 187 197 190 195 196 134 187 189 192 201 204 202 198 195 195 196 197 196 195 191 186 181 165 155 153 164 168 200 205 214 228 245 265 280 288 293 325 319 283 251 225 258 263 193 186 256 272 267 240 235 238 241 245 249 245 236 232 230 230
192 183 190 205 208 212 215 219 227 213 196 189 184 186 194 193 190 189 187 184 182 179 176 174 174 175 178 181 179 188 195 193 200 201 194 188 185 185 191 194 194 189 188 189 189 194 198 202 196 185 177 167 153 136 162 180 185 173 188 215 255 266 273 275 274 306 324 302 259 226 256 253 153 172 245 261 281 237 231 235 240 241 244 243 238 233 230 232
203 207 216 222 224 227 228 229 232 229 203 182 187 183 189 191 188 187 185 182 180 177 174 174 174 176 178 183 189 190 192 197 200 199 206 192 183 182 184 187 189 188 186 185 187 193 196 200 201 193 177 159 146 128 177 181 168 158 151 180 282 298 276 259 247 255 302 310 274 219 278 273 191 226 245 253 255 246 239 236 239 241 242 239 235 233 231 232
196 201 210 217 221 226 232 234 234 237 229 193 190 185 185 189 186 185 184 181 179 176 174 174 176 179 178 182 195 194 190 195 197 198 201 192 182 179 181 184 186 189 190 190 189 189 188 199 213 201 168 156 146 122 155 149 142 153 127 150 289 351 298 249 229 220 241 272 227 159 266 273 244 240 243 251 250 243 241 240 241 244 243 240 236 234 233 233
186 183 192 198 205 215 224 230 233 238 237 228 207 189 181 187 187 184 182 180 177 175 173 174 177 180 180 181 193 195 191 187 194 197 196 189 180 177 182 186 185 190 192 192 188 182 185 198 209 190 160 156 146 122 118 105 119 147 94 81 196 217 279 278 209 185 199 242 196 159 257 267 271 261 251 247 247 243 241 242 243 244 244 242 240 238 237 236
184 177 180 187 193 205 217 225 228 235 237 238 232 205 183 187 188 184 181 180 177 174 173 175 179 178 177 181 192 194 193 188 191 192 192 187 179 176 181 185 185 187 185 184 184 183 189 194 189 168 146 146 139 121 87 45 54 92 145 244 224 194 262 309 187 180 195 211 175 164 249 266 265 273 273 246 237 236 243 245 243 244 244 242 243 242 242 242
185 178 174 177 180 191 205 215 220 226 231 235 238 213 182 186 188 185 181 178 176 175 173 175 180 177 172 178 188 192 192 191 188 185 188 188 180 175 177 183 182 181 178 178 185 186 185 180 167 150 136 139 137 117 79 64 12 346 194 216 224 178 237 306 290 205 216 193 171 183 225 286 270 265 299 252 233 231 240 247 245 245 246 242 243 244 244 244
183 182 178 170 167 177 187 198 207 208 219 230 234 215 189 177 184 184 182 177 177 176 175 176 177 176 175 170 179 188 190 188 186 182 182 183 182 177 177 179 177 178 177 173 177 174 171 164 153 144 134 128 135 127 100 130 234 246 197 189 178 164 170 220 290 328 323 231 202 189 205 245 273 280 284 278 256 242 241 252 254 252 252 248 245 245 245 245
180 186 187 174 167 174 179 189 195 194 207 216 227 220 201 172 177 184 183 178 175 173 176 176 171 171 194 187 182 185 188 187 182 181 179 177 183 183 180 177 175 176 166 156 163 161 158 152 139 134 111 114 157 160 163 196 193 182 176 165 166 158 147 187 235 290 80 151 224 210 232 246 265 278 274 268 268 263 255 262 268 264 261 257 251 248 247 247
178 184 185 178 176 180 182 191 194 196 198 199 218 218 203 193 181 185 181 176 172 169 174 176 173 176 205 185 183 181 185 185 178 180 180 176 181 184 182 179 174 167 151 142 165 161 148 128 123 149 161 172 190 183 176 179 154 155 164 155 151 163 197 220 232 245 199 161 223 229 230 243 256 271 273 271 264 260 262 263 264 267 267 264 259 254 250 248
181 181 180 179 183 186 189 196 198 201 196 190 203 202 201 200 195 189 178 177 181 178 178 180 178 152 103 161 171 171 172 175 175 178 179 176 177 175 171 170 165 158 151 145 166 164 149 142 167 181 184 186 192 174 144 129 127 136 139 134 147 169 223 247 240 258 223 172 244 238 219 238 251 258 269 271 269 260 262 260 258 262 264 264 263 262 259 254
182 184 181 180 184 185 191 198 197 200 196 182 184 186 188 177 186 336 169 180 191 190 181 183 181 136 118 162 172 167 156 161 176 177 176 176 173 166 160 162 156 154 158 136 130 142 149 172 202 198 191 178 170 141 118 108 113 123 134 137 149 178 222 240 233 282 3 147 254 285 278 255 252 256 266 270 269 259 260 258 258 261 263 264 264 264 264 263
183 185 184 183 184 185 190 196 193 195 193 181 181 184 181 177 196 292 359 184 197 203 204 182 184 175 156 170 176 171 157 151 170 173 174 174 172 168 161 162 160 150 149 130 121 125 154 206 216 195 166 140 131 121 115 113 113 112 130 134 154 180 239 266 260 320 21 145 270 343 324 271 262 261 267 269 261 259 264 260 260 263 265 266 266 265 264 265
183 185 185 184 185 186 191 196 195 192 191 189 188 185 188 209 220 237 320 354 199 205 205 180 183 173 156 162 170 172 166 159 166 172 174 173 172 171 162 160 160 146 153 159 155 155 169 236 207 165 137 132 136 123 109 100 107 108 133 141 184 187 179 226 249 317 358 48 306 323 308 274 271 267 265 266 257 256 264 262 260 260 261 265 266 266 266 265
184 186 187 186 188 189 191 196 198 194 192 193 190 186 192 208 230 239 261 359 229 203 199 184 179 169 158 160 169 172 168 166 169 170 172 172 168 167 163 158 150 149 172 171 161 160 169 223 156 141 139 148 151 154 130 114 129 181 167 157 177 185 172 169 247 327 2 20 15 5 318 277 267 262 255 267 261 252 257 258 257 253 254 262 263 262 264 265
187 190 190 189 190 191 191 194 198 196 190 195 194 191 195 202 226 243 188 359 322 194 189 183 175 168 164 164 171 171 160 159 168 170 172 172 166 160 162 162 155 165 176 158 148 166 200 165 144 137 151 154 146 175 174 149 147 211 226 182 170 165 146 97 45 34 45 350 353 40 326 279 301 284 258 273 293 265 259 260 258 253 252 254 257 259 261 263
190 195 193 192 192 192 193 191 194 196 192 201 199 192 198 201 220 237 166 15 299 185 176 175 172 171 169 165 166 164 156 156 169 171 172 175 170 159 152 162 158 167 163 143 143 176 181 159 148 145 154 148 148 185 196 171 146 203 229 177 150 139 126 108 80 72 103 242 284 71 170 263 304 285 262 270 286 280 272 266 260 258 256 252 256 260 259 259
190 195 194 195 193 193 195 193 196 197 195 203 200 191 198 204 213 200 108 337 249 190 167 168 172 173 170 165 163 161 158 155 159 170 172 174 174 164 158 166 145 160 157 137 167 194 120 139 143 147 149 149 168 190 203 172 147 223 218 160 138 131 143 143 104 106 195 243 328 18 127 252 285 257 250 256 266 275 276 273 267 263 260 253 254 259 258 257
186 189 195 195 193 195 198 199 203 197 194 200 192 193 199 198 194 137 110 286 180 148 166 163 166 168 166 164 164 155 138 151 150 170 171 169 173 168 169 177 155 156 164 156 179 196 111 153 163 154 155 177 183 175 166 152 156 241 203 153 152 143 142 135 106 134 212 42 320 308 103 254 270 256 270 275 243 259 269 271 269 265 263 257 253 257 259 258
186 188 197 196 194 195 196 199 201 195 200 202 178 188 188 170 158 124 131 252 133 114 186 155 156 159 154 156 162 138 136 151 145 163 168 165 167 166 167 171 152 146 160 143 157 183 101 176 173 159 166 189 164 139 155 156 176 212 144 96 85 87 83 89 104 128 79 27 240 227 151 246 270 252 246 253 234 245 256 262 259 262 265 262 254 253 257 262
188 192 197 199 197 195 195 195 188 183 198 203 178 175 177 161 143 136 194 207 132 123 153 152 154 151 147 149 162 141 139 143 132 149 161 153 153 147 130 147 144 140 148 58 91 165 35 149 167 165 171 160 119 111 154 158 141 120 104 73 60 45 44 57 59 84 66 284 236 202 177 190 278 265 211 218 230 221 228 248 257 261 263 259 257 257 261 267
188 191 195 201 201 199 199 197 188 172 180 193 186 166 168 171 152 176 190 153 90 138 145 159 157 152 153 153 157 153 139 116 137 144 145 137 144 131 129 141 134 126 143 105 102 359 41 119 170 188 149 133 107 90 72 95 127 111 97 103 87 36 25 35 3 53 186 254 252 204 159 164 235 256 234 256 284 254 222 231 246 258 264 266 268 271 270 267
196 196 202 206 204 203 205 204 200 185 169 180 183 165 156 173 229 209 180 114 134 176 151 162 164 159 160 157 153 153 138 132 155 153 151 153 155 158 155 162 158 141 167 177 153 40 54 118 260 152 153 149 126 106 45 22 102 105 106 125 109 91 95 130 257 208 225 251 253 158 128 201 242 257 264 263 267 254 227 228 240 254 268 276 280 284 284 276
210 206 210 213 213 205 200 205 205 200 185 171 168 164 154 192 209 202 190 136 131 163 144 161 176 167 160 158 154 150 141 149 163 158 154 151 152 171 198 183 160 147 164 167 145 122 137 316 266 154 180 177 158 148 149 183 193 161 144 154 144 129 151 197 222 248 252 259 265 168 174 268 282 277 241 239 251 259 253 250 259 268 275 280 283 288 291 286
220 221 221 219 227 217 196 198 198 197 201 181 160 158 189 206 188 172 186 193 44 58 141 161 176 172 164 159 152 149 140 155 165 157 151 149 153 173 208 233 189 138 114 153 155 163 168 260 207 180 188 179 170 166 155 136 162 176 149 141 153 152 160 187 195 191 226 250 292 257 211 210 231 260 231 229 251 266 268 265 270 276 279 282 287 291 293 287
218 226 227 222 227 223 204 204 201 189 192 188 166 163 195 195 203 167 173 174 120 120 149 165 173 172 166 151 150 155 120 155 162 154 156 160 167 175 175 195 196 159 139 162 174 174 171 204 240 258 144 161 161 158 134 112 136 197 124 127 191 192 144 140 180 170 174 222 266 222 232 215 214 275 270 252 251 257 258 257 262 269 274 280 287 292 292 290
215 219 225 226 222 218 209 203 206 196 183 177 178 238 206 195 265 177 162 149 155 155 148 171 184 174 162 147 158 162 48 136 161 156 170 167 168 181 179 186 189 176 168 163 141 165 168 175 328 10 122 163 164 164 156 147 160 148 146 184 208 164 120 110 198 89 97 213 259 212 247 285 308 287 280 274 269 267 263 259 257 260 266 275 281 284 287 292
216 216 223 227 219 214 212 205 203 196 179 167 195 220 208 233 226 187 152 126 138 159 157 173 193 185 159 143 159 160 130 131 163 159 168 167 172 184 181 188 191 190 190 167 143 197 154 108 336 50 138 210 156 151 152 138 137 132 182 197 160 97 88 104 156 3 47 235 275 245 241 275 289 269 297 342 321 289 273 270 269 261 253 258 272 281 290 297
221 229 233 232 222 211 211 209 199 187 171 155 216 212 187 187 193 199 197 130 130 163 177 182 182 189 181 162 157 164 157 157 170 161 160 178 192 179 177 188 191 193 198 166 135 189 136 108 322 331 144 245 54 132 145 10 79 138 175 174 141 148 209 135 153 165 124 220 270 290 278 256 209 227 271 297 290 285 276 276 281 267 251 258 276 290 296 296
220 235 247 240 226 209 209 210 195 184 170 152 213 205 184 188 196 206 211 183 151 167 200 218 186 184 206 182 159 166 170 168 168 162 168 187 201 179 180 185 184 188 193 170 150 170 126 117 218 295 170 150 44 156 185 189 46 60 125 154 139 138 175 169 159 165 159 187 245 307 321 263 221 211 208 230 251 262 267 272 272 264 263 270 285 295 296 291
208 220 255 246 224 202 202 201 189 185 181 201 207 189 174 193 204 211 214 209 184 179 197 222 204 180 198 187 163 168 172 163 166 175 180 178 170 177 185 184 173 179 181 146 141 156 124 118 146 217 315 167 192 217 189 172 156 137 148 173 187 146 133 160 173 143 132 153 193 280 292 260 241 202 189 210 230 234 238 249 257 267 280 291 297 297 295 290
204 206 240 236 213 186 187 186 182 187 209 216 212 190 180 186 186 208 221 225 227 223 208 203 200 191 180 173 171 172 161 152 167 179 176 176 175 180 191 186 168 165 163 127 154 164 142 134 141 144 179 183 215 249 185 169 176 176 176 190 189 169 132 154 209 226 97 156 174 175 264 263 240 192 189 202 216 224 226 230 255 281 298 306 300 294 284 268
204 217 223 209 186 172 174 175 181 192 210 214 207 196 189 189 181 195 213 223 230 248 247 203 197 203 196 177 173 167 159 155 173 181 185 193 193 192 189 179 160 162 167 140 150 159 93 108 123 136 186 199 239 258 167 179 195 184 206 200 172 168 153 152 197 215 150 205 150 115 269 273 242 193 188 200 209 218 221 210 251 283 289 290 288 277 241 152
209 226 220 196 186 176 171 174 194 191 216 220 213 203 193 196 193 188 195 207 218 236 245 218 187 193 214 187 167 167 162 160 181 186 178 190 195 172 167 164 154 161 171 138 145 164 125 115 108 93 77 297 311 350 68 82 123 216 238 177 148 180 166 143 175 171 162 199 152 107 263 263 251 211 206 222 226 232 239 201 183 254 262 268 266 231 179 127
219 227 212 193 192 184 175 179 185 190 214 214 214 210 201 205 203 191 192 197 201 209 224 223 187 187 202 177 170 181 175 169 196 197 172 165 189 161 160 161 159 166 180 174 173 177 162 135 127 124 104 8 331 336 304 219 195 209 209 141 166 164 122 117 141 119 189 207 169 167 237 239 258 298 255 248 257 274 262 235 212 231 238 231 210 173 144 123
225 226 206 195 193 185 182 198 187 187 207 203 206 208 202 209 210 203 201 198 199 204 215 221 197 183 181 172 176 191 192 185 185 187 159 121 160 161 163 165 166 173 181 170 163 159 148 158 159 150 156 179 195 207 213 193 174 199 170 172 188 169 154 163 115 117 235 212 164 198 237 247 311 289 262 259 266 270 259 240 222 224 217 196 181 163 147 135
207 204 191 191 194 192 196 202 194 191 204 199 203 205 200 204 209 206 204 202 205 208 219 231 199 177 172 175 175 192 204 204 131 156 156 147 171 198 170 169 171 174 167 156 157 150 109 173 174 170 183 191 190 185 139 123 144 191 191 182 186 180 176 164 125 197 217 145 178 223 226 217 254 230 228 244 237 243 259 247 225 217 203 194 190 179 174 178
199 188 174 174 196 203 206 202 196 203 207 198 195 195 198 203 204 201 202 203 203 203 217 239 198 182 178 176 174 189 198 195 127 155 165 157 132 71 166 171 174 170 161 157 161 149 84 196 185 185 196 191 144 156 137 137 169 187 176 174 181 179 178 177 199 213 161 127 228 229 204 216 236 215 218 232 225 233 254 246 234 213 193 198 203 198 208 240
211 198 181 180 186 196 202 196 192 203 209 202 195 189 196 201 201 198 198 202 204 200 207 227 204 197 184 175 176 185 188 189 170 168 169 160 132 95 159 178 182 170 161 162 172 155 122 203 194 186 190 130 70 152 158 156 174 173 169 178 179 178 183 196 215 212 163 188 235 194 173 216 226 209 222 226 210 210 222 230 229 207 197 203 208 211 228 252
215 217 190 193 198 200 203 196 188 199 210 204 200 200 198 198 200 200 191 191 204 202 200 212 208 198 187 178 177 178 178 183 187 180 172 164 158 146 154 181 217 185 169 165 181 171 160 194 190 177 169 58 42 161 159 155 162 165 179 182 176 184 194 205 219 214 193 220 237 133 187 236 222 196 219 221 214 214 216 222 212 202 206 208 210 224 240 253
215 215 197 202 215 219 214 203 191 200 208 200 202 205 199 198 199 200 195 188 194 197 198 209 207 188 183 183 184 189 189 189 190 185 176 170 170 172 172 173 184 186 180 175 179 188 194 187 162 154 149 31 1 85 95 126 154 171 186 184 184 197 205 214 223 213 205 238 243 260 290 267 223 197 218 223 222 217 220 227 213 211 220 219 220 231 244 255
229 225 216 214 221 213 217 212 192 200 208 201 202 202 200 202 198 197 201 196 194 192 194 203 204 188 184 188 191 196 196 196 198 188 177 173 166 159 166 171 162 163 175 183 172 182 204 188 121 136 165 224 250 111 100 89 95 140 199 199 199 203 208 217 221 194 208 231 229 236 268 258 192 181 213 220 208 195 216 231 228 228 228 225 228 236 248 259
234 231 224 222 226 210 211 213 199 204 207 194 196 199 201 202 196 193 200 199 198 201 199 199 198 187 183 191 199 203 200 199 201 185 174 170 155 134 124 143 161 167 167 166 155 152 159 140 121 155 174 209 221 136 128 96 73 216 227 210 202 203 205 213 222 213 216 218 205 218 239 224 154 169 194 203 195 200 221 229 232 236 233 231 238 245 254 262